Date String (YYYY-MM-DD hh:mm:ss) UTC,Instrument flags,absolute air pressure of the measurement (hPa),sample flow rate (lpm),inlet stack bypass flow (lpm),air temperature of the measurement (°C),ambient temperature measured by the external sensor (°C),aerosol sample conditioner tube jacket temperature (°C),OPC LED temperature (°C),internal box temperature (°C),relative humidity of the measurement (%),span deviation,mass concentration of particles derived from Lorenz-Mie calculation of OPC scattering (μg/m³),mass concentration of particles derived from Lorenz-Mie calculation of OPC scattering (μg/m³),mass concentration of particles derived from Lorenz-Mie calculation of OPC scattering (μg/m³)
DateTimeUTC,F1_M11,P_M11,Q1_M11,Q2_M11,T1_M11,T2_M11,T3_M11,T4_M11,T5_M11,U1_M11,ZSPAN_M11,X2_M11,X0_M11,X1_M11
2024-03-31 10:00:00,SystemResetWarning,0818.9,5.01,000.00,022.1,021.2,000.0,030.9,024.0,21.8,0000.0,0004.31,0010.14,0003.65
2024-03-31 10:01:00,SystemResetWarning,0819.0,5.00,000.00,022.1,021.2,000.0,030.8,024.0,21.8,0000.0,0004.29,0009.99,0003.65
2024-03-31 10:02:00,SystemResetWarning,0819.1,5.00,000.00,022.1,021.2,000.0,030.8,024.0,21.8,0000.0,0004.26,0009.76,0003.65
2024-03-31 10:03:00,SystemResetWarning,0819.1,4.99,000.00,022.1,021.2,000.0,030.8,024.0,21.8,0000.0,0004.27,0009.77,0003.64
2024-03-31 10:04:00,SystemResetWarning,0819.0,5.00,000.00,022.1,021.1,000.0,030.8,024.0,21.8,0000.0,0004.24,0009.44,0003.65
2024-03-31 10:05:00,SystemResetWarning,0819.0,4.99,000.00,022.1,021.1,000.0,030.8,023.9,21.8,0000.0,0004.25,0009.41,0003.65
2024-03-31 10:06:00,SystemResetWarning,0819.0,4.99,000.00,022.1,021.1,000.0,030.8,023.9,21.8,0000.0,0004.27,0009.45,0003.65
2024-03-31 10:07:00,SystemResetWarning,0819.0,5.00,000.00,022.0,021.1,000.0,030.8,023.9,21.8,0000.0,0004.23,0008.30,0003.65
2024-03-31 10:08:00,SystemResetWarning,0818.9,5.01,000.00,022.0,021.0,000.0,030.8,023.9,21.8,0000.0,0004.24,0008.81,0003.65
2024-03-31 10:09:00,SystemResetWarning,0819.0,5.00,000.00,022.0,021.0,000.0,030.8,023.9,21.8,0000.0,0004.25,0009.47,0003.66
2024-03-31 10:10:00,SystemResetWarning,0819.0,4.99,000.00,022.0,021.0,000.0,030.7,023.9,21.8,0000.0,0004.23,0009.10,0003.66
2024-03-31 10:11:00,SystemResetWarning,0819.0,4.99,000.00,022.0,020.9,000.0,030.7,023.8,21.8,0000.0,0004.22,0009.13,0003.66
2024-03-31 10:12:00,SystemResetWarning,0819.0,5.01,000.00,022.0,020.9,000.0,030.7,023.8,21.8,0000.0,0004.26,0010.17,0003.66
2024-03-31 10:13:00,SystemResetWarning,0819.0,5.01,000.00,021.9,020.9,000.0,030.7,023.8,21.9,0000.0,0004.27,0010.39,0003.66
2024-03-31 10:14:00,SystemResetWarning,0819.0,5.00,000.00,021.9,020.9,000.0,030.7,023.8,21.8,0000.0,0004.28,0010.44,0003.67
2024-03-31 10:15:00,SystemResetWarning,0819.0,5.00,000.00,021.9,020.9,000.0,030.7,023.8,21.8,0000.0,0004.30,0010.54,0003.68
2024-03-31 10:16:00,SystemResetWarning,0819.0,4.99,000.00,021.9,021.0,000.0,030.7,023.8,21.9,0000.0,0004.30,0010.89,0003.69
2024-03-31 10:17:00,SystemResetWarning,0819.1,4.99,000.00,021.9,021.0,000.0,030.7,023.8,21.9,0000.0,0004.26,0010.95,0003.70
2024-03-31 10:18:00,SystemResetWarning,0819.2,5.00,000.00,021.9,021.0,000.0,030.7,023.8,21.9,0000.0,0004.27,0010.99,0003.70
2024-03-31 10:19:00,SystemResetWarning,0819.2,5.00,000.00,021.9,021.0,000.0,030.6,023.8,21.9,0000.0,0004.27,0010.48,0003.71
2024-03-31 10:20:00,SystemResetWarning,0818.8,5.01,000.00,021.9,021.0,000.0,030.6,023.8,22.0,0000.0,0004.25,0010.51,0003.70
2024-03-31 10:21:00,SystemResetWarning,0818.8,5.01,000.00,021.9,021.1,000.0,030.6,023.8,22.1,0000.0,0004.27,0011.58,0003.71
2024-03-31 10:22:00,SystemResetWarning,0818.8,5.00,000.00,021.9,021.1,000.0,030.6,023.8,22.2,0000.0,0004.27,0012.00,0003.71
2024-03-31 10:23:00,SystemResetWarning,0818.8,5.00,000.00,021.9,021.1,000.0,030.6,023.8,22.2,0000.0,0004.25,0011.07,0003.71
2024-03-31 10:24:00,SystemResetWarning,0818.8,4.99,000.00,021.9,021.1,000.0,030.6,023.8,22.2,0000.0,0004.25,0010.92,0003.71
2024-03-31 10:25:00,SystemResetWarning,0818.8,5.00,000.00,021.9,021.1,000.0,030.6,023.8,22.3,0000.0,0004.23,0011.45,0003.70
2024-03-31 10:26:00,SystemResetWarning,0818.8,4.99,000.00,021.9,021.1,000.0,030.6,023.8,22.4,0000.0,0004.22,0012.48,0003.68
2024-03-31 10:27:00,SystemResetWarning,0818.8,5.00,000.00,021.9,021.1,000.0,030.6,023.8,22.5,0000.0,0004.20,0012.05,0003.68
2024-03-31 10:28:00,SystemResetWarning,0818.9,5.00,000.00,021.9,021.1,000.0,030.6,023.8,22.5,0000.0,0004.20,0011.93,0003.67
2024-03-31 10:29:00,SystemResetWarning,0819.1,5.00,000.00,021.9,021.1,000.0,030.6,023.8,22.5,0000.0,0004.22,0011.87,0003.66
2024-03-31 10:30:00,SystemResetWarning,0819.3,4.99,000.00,021.9,021.1,000.0,030.6,023.8,22.6,0000.0,0004.23,0011.81,0003.66
2024-03-31 10:31:00,SystemResetWarning,0819.3,5.00,000.00,021.9,021.1,000.0,030.6,023.8,22.6,0000.0,0004.24,0011.59,0003.66
2024-03-31 10:32:00,SystemResetWarning,0819.1,5.01,000.00,021.9,021.1,000.0,030.6,023.8,22.6,0000.0,0004.25,0011.37,0003.65
2024-03-31 10:33:00,SystemResetWarning,0818.9,5.01,000.00,021.9,021.0,000.0,030.6,023.8,22.6,0000.0,0004.26,0010.77,0003.65
2024-03-31 10:34:00,SystemResetWarning,0819.4,4.99,000.00,021.9,021.0,000.0,030.5,023.8,22.6,0000.0,0004.27,0010.59,0003.65
2024-03-31 10:35:00,SystemResetWarning,0819.4,5.00,000.00,021.9,021.0,000.0,030.5,023.8,22.6,0000.0,0004.30,0010.80,0003.66
2024-03-31 10:36:00,SystemResetWarning,0819.4,5.00,000.00,021.9,021.0,000.0,030.5,023.7,22.6,0000.0,0004.32,0010.60,0003.67
2024-03-31 10:37:00,SystemResetWarning,0819.3,4.99,000.00,021.9,021.0,000.0,030.5,023.7,22.7,0000.0,0004.33,0009.90,0003.68
2024-03-31 10:38:00,SystemResetWarning,0819.4,5.00,000.00,021.8,021.0,000.0,030.5,023.7,22.7,0000.0,0004.37,0010.17,0003.69
2024-03-31 10:39:00,SystemResetWarning,0819.3,5.01,000.00,021.8,021.0,000.0,030.5,023.7,22.7,0000.0,0004.42,0010.60,0003.70
2024-03-31 10:40:00,SystemResetWarning,0819.4,5.01,000.00,021.8,020.9,000.0,030.5,023.7,22.7,0000.0,0004.43,0011.18,0003.71
2024-03-31 10:41:00,SystemResetWarning,0819.4,4.99,000.00,021.8,020.9,000.0,030.5,023.7,22.7,0000.0,0004.41,0011.79,0003.71
2024-03-31 10:42:00,SystemResetWarning,0819.2,4.99,000.00,021.8,020.9,000.0,030.5,023.7,22.6,0000.0,0004.42,0011.60,0003.72
2024-03-31 10:43:00,SystemResetWarning,0819.4,5.01,000.00,021.8,020.9,000.0,030.5,023.7,22.6,0000.0,0004.42,0011.12,0003.74
2024-03-31 10:44:00,SystemResetWarning,0819.3,5.01,000.00,021.8,020.9,000.0,030.5,023.7,22.6,0000.0,0004.42,0011.54,0003.76
2024-03-31 10:45:00,SystemResetWarning,0819.4,4.99,000.00,021.8,020.9,000.0,030.5,023.7,22.6,0000.0,0004.43,0011.67,0003.78
2024-03-31 10:46:00,SystemResetWarning,0818.9,5.00,000.00,021.8,020.9,000.0,030.5,023.7,22.5,0000.0,0004.45,0012.18,0003.79
2024-03-31 10:47:00,SystemResetWarning,0819.0,5.00,000.00,021.8,020.9,000.0,030.5,023.6,22.5,0000.0,0004.48,0012.07,0003.81
2024-03-31 10:48:00,SystemResetWarning,0818.9,5.01,000.00,021.8,020.9,000.0,030.5,023.6,22.5,0000.0,0004.52,0012.46,0003.83
2024-03-31 10:49:00,SystemResetWarning,0819.1,5.01,000.00,021.8,020.8,000.0,030.5,023.6,22.5,0000.0,0004.50,0012.57,0003.84
2024-03-31 10:50:00,SystemResetWarning,0818.9,5.00,000.00,021.8,020.8,000.0,030.4,023.6,22.6,0000.0,0004.47,0012.54,0003.84
2024-03-31 10:51:00,SystemResetWarning,0819.0,4.99,000.00,021.7,020.8,000.0,030.4,023.6,22.6,0000.0,0004.47,0011.94,0003.85
2024-03-31 10:52:00,SystemResetWarning,0819.0,5.00,000.00,021.7,020.8,000.0,030.4,023.6,22.6,0000.0,0004.52,0011.43,0003.86
2024-03-31 10:53:00,SystemResetWarning,0818.9,5.02,000.00,021.7,020.8,000.0,030.4,023.6,22.6,0000.0,0004.56,0011.51,0003.86
2024-03-31 10:54:00,SystemResetWarning,0819.0,5.00,000.00,021.7,020.8,000.0,030.4,023.6,22.6,0000.0,0004.58,0012.11,0003.86
2024-03-31 10:55:00,SystemResetWarning,0819.0,4.99,000.00,021.7,020.8,000.0,030.4,023.6,22.6,0000.0,0004.55,0011.69,0003.87
2024-03-31 10:56:00,SystemResetWarning,0819.0,4.99,000.00,021.7,020.8,000.0,030.4,023.6,22.6,0000.0,0004.53,0011.84,0003.87
2024-03-31 10:57:00,SystemResetWarning,0819.0,5.00,000.00,021.7,020.8,000.0,030.4,023.5,22.6,0000.0,0004.54,0011.66,0003.87
2024-03-31 10:58:00,SystemResetWarning,0819.1,5.00,000.00,021.7,020.8,000.0,030.4,023.5,22.6,0000.0,0004.56,0011.49,0003.88
2024-03-31 10:59:00,SystemResetWarning,0819.1,5.01,000.00,021.7,020.8,000.0,030.4,023.5,22.5,0000.0,0004.52,0010.54,0003.88
